EW2077 Weather Reports


Display with metric or nautical units.
time (UTC)temp
F
wind
direction
speed
MPH
gust
MPH
rain 1hr
in
rain 24hr
in
rain mn
in
humidity
%
barometer
mb
20260906154511 69 348 0.0 0.0 0.00 0.10 0.01 54 1033.5
20260906153006 66 348 0.0 0.0 0.00 0.10 0.01 67 1033.6
20260906151501 64 348 0.0 0.0 0.00 0.10 0.01 68 1033.7
20260906150057 62 348 0.0 0.0 0.00 0.10 0.01 77 1033.8
20260906144553 60 348 0.0 0.0 0.00 0.10 0.01 83 1034.0
20260906143053 57 348 0.0 0.0 0.01 0.10 0.01 87 1034.0
20260906141545 55 348 0.0 0.0 0.01 0.10 0.01 89 1034.1
20260906140049 53 348 0.0 0.0 0.01 0.10 0.01 88 1034.0
20260906134545 52 348 0.0 0.0 0.01 0.10 0.01 89 1034.0
20260906133100 51 348 0.0 0.0 0.00 0.09 0.00 89 1034.1
20260906131546 50 348 0.0 0.0 0.00 0.09 0.00 89 1034.0
20260906130049 50 348 0.0 0.0 0.00 0.09 0.00 88 1033.8
20260906124543 49 348 0.0 0.0 0.00 0.09 0.00 89 1033.7
20260906123043 49 348 0.0 0.0 0.00 0.09 0.00 89 1033.6
20260906121536 49 348 0.0 0.0 0.00 0.09 0.00 89 1033.7
20260906120044 49 348 0.0 0.0 0.00 0.09 0.00 89 1033.7
20260906114534 49 348 0.0 0.0 0.00 0.09 0.00 89 1033.7
20260906113039 50 348 0.0 0.0 0.00 0.09 0.00 90 1033.6
20260906111530 50 348 0.0 0.0 0.00 0.09 0.00 90 1033.3
20260906110028 50 348 0.0 0.0 0.00 0.09 0.00 90 1033.3
20260906104533 50 348 0.0 0.0 0.00 0.09 0.00 90 1033.3
20260906103026 50 348 0.0 0.0 0.00 0.09 0.00 90 1033.3
20260906101524 50 348 0.0 0.0 0.00 0.09 0.00 90 1033.2
20260906100031 50 348 0.0 0.0 0.00 0.09 0.00 90 1033.2
20260906094519 51 348 0.0 0.0 0.00 0.09 0.00 90 1033.3
20260906093040 51 348 0.0 0.0 0.00 0.09 0.00 90 1033.3
20260906091516 51 348 0.0 0.0 0.00 0.09 0.00 90 1033.3
20260906090020 51 348 0.0 0.0 0.00 0.09 0.00 90 1032.9
20260906084518 51 348 0.0 0.0 0.00 0.09 0.00 90 1032.8
20260906083023 51 348 0.0 0.0 0.00 0.09 0.00 90 1032.7
20260906081513 52 348 0.0 0.0 0.00 0.09 0.00 90 1032.8
20260906080011 52 348 0.0 0.0 0.00 0.09 0.00 90 1033.0
20260906074526 52 348 0.0 0.0 0.00 0.09 0.00 90 1033.1
20260906073010 53 348 0.0 0.0 0.00 0.09 0.00 89 1033.1
20260906071504 53 348 0.0 0.0 0.00 0.09 0.00 89 1033.1
20260906070001 54 348 0.0 0.0 0.00 0.09 0.00 89 1033.3
20260906064559 54 348 0.0 0.0 0.00 0.09 0.00 89 1033.2
20260906063058 55 348 0.0 0.0 0.00 0.09 0.00 89 1033.1
20260906061602 55 348 0.0 0.0 0.00 0.09 0.00 89 1033.3
20260906060048 55 348 0.0 0.0 0.00 0.09 0.00 88 1033.3
20260906054549 56 348 0.0 0.0 0.00 0.09 0.09 88 1033.4
20260906053104 57 348 0.0 1.0 0.00 0.09 0.09 88 1033.4
20260906051547 57 350 0.0 0.0 0.04 0.09 0.09 88 1033.7
20260906050047 58 350 0.0 0.0 0.09 0.09 0.09 87 1033.6
20260906044546 58 350 0.0 0.0 0.09 0.09 0.09 85 1033.8
20260906043044 60 355 0.0 1.0 0.09 0.09 0.09 80 1033.9
20260906041550 64 5 0.0 13.0 0.05 0.05 0.05 69 1033.6
20260906040039 69 355 1.0 13.0 0.00 0.00 0.00 47 1033.1
20260906034543 68 15 1.0 9.0 0.00 0.00 0.00 47 1032.8
20260906033045 66 209 0.0 0.0 0.00 0.00 0.00 45 1032.8
20260906031540 66 209 0.0 0.0 0.00 0.00 0.00 46 1032.5
20260906030046 67 209 0.0 0.0 0.00 0.00 0.00 44 1032.4
20260906024536 67 209 0.0 0.0 0.00 0.00 0.00 43 1032.2
20260906023035 68 209 0.0 0.0 0.00 0.00 0.00 42 1031.9
20260906021535 69 209 0.0 0.0 0.00 0.00 0.00 40 1031.8
20260906020034 70 209 0.0 0.0 0.00 0.00 0.00 38 1031.7
20260906014544 72 209 0.0 0.0 0.00 0.00 0.00 37 1031.5
20260906013033 73 209 0.0 0.0 0.00 0.00 0.00 35 1031.3
20260906011539 74 209 0.0 0.0 0.00 0.00 0.00 34 1031.3
20260906010056 76 209 0.0 0.0 0.00 0.00 0.00 33 1031.3
20260906004532 77 209 0.0 0.0 0.00 0.00 0.00 31 1031.3
20260906003031 78 209 0.0 0.0 0.00 0.00 0.00 30 1031.2
20260906001548 78 209 0.0 1.0 0.00 0.00 0.00 30 1031.2
20260906000030 79 209 0.0 2.0 0.00 0.00 0.00 30 1031.0
20260905234530 79 209 0.0 3.0 0.00 0.00 0.00 29 1030.9
20260905233128 81 204 0.0 4.0 0.00 0.00 0.00 27 1030.8
20260905231538 80 204 0.0 3.0 0.00 0.00 0.00 29 1030.7
20260905230026 80 204 0.0 0.0 0.00 0.00 0.00 29 1030.7
20260905224537 80 204 0.0 3.0 0.00 0.00 0.00 28 1030.7
20260905223034 82 214 0.0 0.0 0.00 0.00 0.00 26 1030.6
20260905221519 82 214 0.0 0.0 0.00 0.00 0.00 27 1031.0
20260905220024 83 213 0.0 0.0 0.00 0.00 0.00 27 1031.3
20260905214515 82 209 0.0 2.0 0.00 0.00 0.00 27 1031.3
20260905213019 82 209 0.0 1.0 0.00 0.00 0.00 28 1031.5
20260905211526 81 208 0.0 3.0 0.00 0.00 0.00 28 1031.7
20260905210007 80 205 0.0 3.0 0.00 0.00 0.00 28 1032.0
20260905204506 81 203 0.0 6.0 0.00 0.00 0.00 29 1032.1
20260905203006 80 196 1.0 6.0 0.00 0.00 0.00 28 1032.1
20260905201504 80 192 2.0 6.0 0.00 0.00 0.00 28 1032.1
20260905200059 82 198 0.0 4.0 0.00 0.00 0.00 28 1032.1
20260905194558 82 192 1.0 5.0 0.00 0.00 0.00 28 1032.2
20260905193056 82 203 1.0 4.0 0.00 0.00 0.00 28 1032.3
20260905191554 82 198 1.0 4.0 0.00 0.00 0.00 27 1032.3
20260905190059 82 222 0.0 7.0 0.00 0.00 0.00 27 1032.3
20260905184551 82 215 1.0 4.0 0.00 0.00 0.00 28 1032.4
20260905183107 81 215 1.0 4.0 0.00 0.00 0.00 28 1032.5
20260905181547 81 209 2.0 6.0 0.00 0.00 0.00 28 1032.5
20260905180050 80 200 0.0 4.0 0.00 0.00 0.00 28 1032.6
20260905174543 80 209 0.0 4.0 0.00 0.00 0.00 28 1032.6
20260905173040 79 202 1.0 5.0 0.00 0.00 0.00 30 1032.7
20260905171542 79 229 0.0 3.0 0.00 0.00 0.00 30 1032.8
20260905170040 78 313 0.0 2.0 0.00 0.00 0.00 31 1032.7
20260905164537 78 320 0.0 0.0 0.00 0.00 0.00 29 1032.6
20260905163035 78 320 0.0 0.0 0.00 0.00 0.00 31 1032.7
20260905161530 78 329 0.0 0.0 0.00 0.00 0.00 31 1032.6
20260905160027 76 355 0.0 3.0 0.00 0.00 0.00 35 1032.7